Regional Weather Roundup
Issued by NWS

Home | Current Version | Previous Version | Text Only | Print | Product List | Glossary On
Versions: 1 2 3 4 5 6 7 8 9 10 11 12 13 14 15 16 17 18 19 20 21 22 23 24 25 26 27 28 29 30 31 32 33 34 35 36 37 38 39 40 41 42 43 44 45 46 47 48 49 50
000
ASUS43 KOAX 011902
RWRNE

WEATHER ROUNDUP FOR NEBRASKA
NATIONAL WEATHER SERVICE OMAHA NE
200 PM CDT WED JUL 01 2015

NOTES: SATELLITE DATA IS BEING USED TO AUGMENT CLOUD COVER ABOVE
       12000 FEET.
       "FAIR" INDICATES FEW OR NO CLOUDS BELOW 12,000 FEET WITH NO
       SIGNIFICANT WEATHER AND/OR OBSTRUCTIONS TO VISIBILITY.

  * THESE STATIONS DO NOT REPORT WEATHER SUCH AS RAIN...SNOW OR FOG.

NEZ001>004-019>022-054>056-012000-
NEBRASKA PANHANDLE

CITY           SKY/WX    TMP DP  RH WIND       PRES   REMARKS
SCOTTSBLUFF    SUNNY     93  49  22 VRB3      30.04S HX  90
ALLIANCE       SUNNY     89  53  29 NE12      30.03S
CHADRON        SUNNY     87  59  38 VRB7      29.99F
KIMBALL          N/A    N/A N/A N/A MISG        N/A
SIDNEY         SUNNY     90  59  35 N7        30.07S
$$

NEZ057>060-069>072-079>082-012000-
SOUTHWEST NEBRASKA

CITY           SKY/WX    TMP DP  RH WIND       PRES   REMARKS
NORTH PLATTE   SUNNY     93  61  34 N13G22    29.93S HX  93
IMPERIAL       SUNNY     95  59  30 N9        29.98S HX  94
LEXINGTON      SUNNY     87  67  51 NE12      29.92S HX  90
MCCOOK         SUNNY     95  57  27 NE14      29.92R HX  94
$$

NEZ005>010-023>029-035>040-094-012000-
NORTH CENTRAL NEBRASKA

CITY           SKY/WX    TMP DP  RH WIND       PRES   REMARKS
VALENTINE      MOSUNNY   85  68  56 N8        29.93S
AINSWORTH      MOSUNNY   84  67  57 NE3       29.94S
BROKEN BOW     SUNNY     85  69  58 E8        29.93S
O`NEILL        CLOUDY    76  67  73 E6        29.93R
ORD            SUNNY     79  66  64 CALM      29.91S
$$

NEZ041-046>049-061>064-073>077-083>087-012000-
SOUTH CENTRAL NEBRASKA

CITY           SKY/WX    TMP DP  RH WIND       PRES   REMARKS
GRAND ISLAND   PTSUNNY   79  66  64 NE12      29.91R
AURORA         PTSUNNY   81  69  67 NE7       29.89S
HASTINGS       SUNNY     82  69  64 NE10      29.89S
KEARNEY *      SUNNY     81  66  61 NE13G20   29.92R
$$

NEZ011>018-030>034-042>045-012000-
NORTHEAST NEBRASKA

CITY           SKY/WX    TMP DP  RH WIND       PRES   REMARKS
NORFOLK        PTSUNNY   79  68  69 E10       29.89F
COLUMBUS *     PTSUNNY  N/A N/A N/A MISG        N/A
FREMONT        MOSUNNY   82  66  58 E14       29.88S
TEKAMAH        SUNNY     82  69  64 NE10      29.88S
$$

NEZ050>053-065>068-078-088>093-012000-
SOUTHEAST NEBRASKA

CITY           SKY/WX    TMP DP  RH WIND       PRES   REMARKS
LINCOLN        MOSUNNY   84  70  62 S3        29.86R
OMAHA EPPLEY   MOSUNNY   83  69  62 E10       29.87S
FALLS CITY     CLOUDY    81  72  74 E10       29.83F
PLATTSMOUTH    SUNNY     82  70  66 SE9       29.86S
$$

NEZ044-045-051>053-067-012000-
OMAHA AREA

CITY           SKY/WX    TMP DP  RH WIND       PRES   REMARKS
OMAHA EPPLEY   MOSUNNY   83  69  62 E10       29.87S
FREMONT        MOSUNNY   82  66  58 E14       29.88S
MILLARD        MOSUNNY   82  69  66 E7        29.86S
OFFUTT AFB     MOSUNNY   83  71  68 E8        29.85F
PLATTSMOUTH    SUNNY     82  70  66 SE9       29.86S
$$


USA.gov is the U.S. government's official web portal to all federal, state and local government web resources and services.